Sacramento, CA

11:43 AM PST on January 18, 2017 (GMT -0800)
Sacramento Executive

Weather History for KSAC - December, 2012

Change the Weather History Date:

Sunday, December 23, 2012

  Actual Average Record
Temperature  
Mean Temperature 51 °F -  
Max Temperature 52 °F 52 °F 66 °F (1964)
Min Temperature 49 °F 38 °F 20 °F (1990)
Degree Days  
Heating Degree Days 14    
Cooling Degree Days 0    
Moisture  
Dew Point 46 °F    
Average Humidity 85    
Maximum Humidity 89    
Minimum Humidity 80    
Precipitation  
Precipitation 0.83 in 0.11 in 1.22 in (1955)
Month to date precipitation 5.09 2.34  
Year to date precipitation 20.09 17.61  
Since 1 July precipitation 10.23  
Sea Level Pressure  
Sea Level Pressure 29.94 in    
Wind  
Wind Speed 13 mph (SSE)    
Max Wind Speed 25 mph    
Max Gust Speed 38 mph    
Visibility 6 miles    
Events Rain    
T = Trace of Precipitation, MM = Missing Value Source: NWS Daily Summary

Daily Weather History Graph

Daily Weather History Graph

Search for Another Location

Airport or City:

Trip Planner

Search our weather history database for the weather conditions in past years. The results will help you decide how hot, cold, wet, or windy it might be!

Date:

Astronomy

Dec. 23, 2012 Rise Set
Actual Time 7:21 AM PST 4:49 PM PST
Civil Twilight 6:51 AM PST 5:19 PM PST
Nautical Twilight 6:17 AM PST 5:52 PM PST
Astronomical Twilight 5:45 AM PST 6:25 PM PST
Moon 1:42 PM PST (12/23) 3:10 AM PST (12/23)
Length of Visible Light 10h 28m
Length of Day
9h 28m
Waxing Gibbous, 82% of the Moon is Illuminated
Dec 23
Waxing Gibbous
Dec 28
Full
Jan 4
Last Quarter
Jan 11
New
Jan 18
First Quarter

Hourly Weather History & Observations

Time (PST) Temp. Dew Point Humidity Pressure Visibility Wind Dir Wind Speed Gust Speed Precip Events Conditions
12:53 AM 48.9 °F 45.0 °F 86% 30.08 in 8.0 mi SE 5.8 mph - 0.04 in Rain Light Rain
1:53 AM 50.0 °F 46.0 °F 86% 30.08 in 10.0 mi SSE 10.4 mph - 0.00 in   Overcast
2:53 AM 50.0 °F 45.0 °F 83% 30.08 in 10.0 mi SE 9.2 mph - N/A   Mostly Cloudy
3:53 AM 48.9 °F 45.0 °F 86% 30.06 in 10.0 mi SSE 11.5 mph 18.4 mph 0.00 in Rain Light Rain
4:53 AM 50.0 °F 45.0 °F 83% 30.04 in 10.0 mi SSE 9.2 mph - 0.00 in   Overcast
5:53 AM 48.9 °F 46.0 °F 90% 30.04 in 5.0 mi SSE 9.2 mph - 0.01 in Rain Light Rain
6:53 AM 50.0 °F 46.0 °F 86% 30.02 in 7.0 mi SSE 10.4 mph - 0.06 in Rain Light Rain
7:53 AM 50.0 °F 45.0 °F 83% 29.99 in 7.0 mi SE 12.7 mph 19.6 mph 0.03 in Rain Light Rain
8:53 AM 48.9 °F 45.0 °F 86% 29.98 in 3.0 mi SE 18.4 mph 26.5 mph 0.07 in Rain Light Rain
9:23 AM 50.0 °F 46.4 °F 87% 29.98 in 2.5 mi SE 13.8 mph 28.8 mph 0.04 in Rain Rain
9:32 AM 50.0 °F 46.4 °F 87% 29.97 in 3.0 mi SSE 15.0 mph 23.0 mph 0.05 in Rain Light Rain
9:53 AM 51.1 °F 46.0 °F 83% 29.97 in 7.0 mi SE 18.4 mph 28.8 mph 0.06 in Rain Light Rain
10:53 AM 52.0 °F 46.0 °F 80% 29.93 in 4.0 mi SSE 20.7 mph 34.5 mph 0.03 in Rain Rain
11:53 AM 52.0 °F 46.0 °F 80% 29.91 in 4.0 mi SE 23.0 mph 38.0 mph 0.04 in Rain Light Rain
12:38 PM 51.8 °F 46.4 °F 82% 29.92 in 2.5 mi SSE 15.0 mph 26.5 mph 0.08 in Rain Rain
12:53 PM 51.1 °F 46.9 °F 86% 29.91 in 2.0 mi SE 18.4 mph 33.4 mph 0.14 in Rain Rain
1:05 PM 51.8 °F 46.4 °F 82% 29.90 in 3.0 mi SSE 20.7 mph 29.9 mph 0.03 in Rain Rain
1:12 PM 51.8 °F 48.2 °F 88% 29.90 in 2.0 mi SSE 17.3 mph 32.2 mph 0.06 in Rain Rain
1:20 PM 51.8 °F 48.2 °F 88% 29.89 in 1.5 mi SSE 21.9 mph 31.1 mph 0.10 in Rain Heavy Rain
1:34 PM 51.8 °F 48.2 °F 88% 29.89 in 3.0 mi SSE 21.9 mph 33.4 mph 0.14 in Rain Light Rain
1:43 PM 51.8 °F 48.2 °F 88% 29.88 in 2.5 mi SE 19.6 mph 29.9 mph 0.15 in Rain Rain
1:47 PM 51.8 °F 48.2 °F 88% 29.88 in 3.0 mi SSE 19.6 mph 28.8 mph 0.15 in Rain Light Rain
1:53 PM 51.1 °F 48.0 °F 89% 29.88 in 3.0 mi SSE 16.1 mph 27.6 mph 0.16 in Rain Light Rain
2:12 PM 51.8 °F 46.4 °F 82% 29.89 in 2.5 mi SSE 19.6 mph 29.9 mph 0.03 in Rain Light Rain
2:25 PM 51.8 °F 46.4 °F 82% 29.87 in 1.8 mi SSE 17.3 mph 32.2 mph 0.05 in Rain Light Rain
2:41 PM 50.0 °F 46.4 °F 87% 29.87 in 2.5 mi SSE 17.3 mph 33.4 mph 0.09 in Rain Light Rain
2:49 PM 51.8 °F 46.4 °F 82% 29.87 in 4.0 mi SSE 20.7 mph 31.1 mph 0.09 in Rain Light Rain
2:53 PM 51.1 °F 46.9 °F 86% 29.88 in 2.0 mi SSE 16.1 mph 29.9 mph 0.10 in Rain Rain
3:05 PM 51.8 °F 46.4 °F 82% 29.88 in 1.5 mi SSE 12.7 mph 34.5 mph 0.05 in Rain Heavy Rain
3:10 PM 51.8 °F 46.4 °F 82% 29.88 in 3.0 mi WSW 11.5 mph 23.0 mph 0.06 in Rain Light Rain
3:14 PM 51.8 °F 46.4 °F 82% 29.88 in 7.0 mi Variable 4.6 mph 18.4 mph 0.06 in Rain Light Rain
3:22 PM 51.8 °F 46.4 °F 82% 29.88 in 7.0 mi SSE 18.4 mph 27.6 mph 0.06 in Rain Light Rain
3:25 PM 51.8 °F 46.4 °F 82% 29.88 in 2.5 mi SSE 19.6 mph 33.4 mph 0.06 in Rain Light Rain
3:53 PM 51.1 °F 46.9 °F 86% 29.89 in 2.5 mi SSE 17.3 mph 32.2 mph 0.09 in Rain Rain
4:16 PM 51.8 °F 46.4 °F 82% 29.90 in 2.5 mi South 9.2 mph - 0.10 in Rain Rain
4:53 PM 51.1 °F 46.0 °F 83% 29.88 in 10.0 mi SSE 18.4 mph 31.1 mph 0.12 in   Overcast
5:39 PM 50.0 °F 46.4 °F 87% 29.91 in 5.0 mi SSE 12.7 mph 28.8 mph 0.00 in Rain Light Rain
5:53 PM 50.0 °F 46.0 °F 86% 29.91 in 5.0 mi SSE 11.5 mph 23.0 mph 0.03 in Rain Light Rain
6:53 PM 48.9 °F 46.0 °F 90% 29.92 in 6.0 mi SE 11.5 mph - 0.02 in Rain Light Rain
7:53 PM 50.0 °F 46.0 °F 86% 29.93 in 10.0 mi SSE 10.4 mph 19.6 mph 0.01 in   Overcast
8:05 PM 50.0 °F 46.4 °F 87% 29.93 in 10.0 mi South 8.1 mph 16.1 mph 0.00 in Rain Light Rain
8:21 PM 50.0 °F 46.4 °F 87% 29.94 in 10.0 mi South 5.8 mph - 0.00 in Rain Light Rain
8:53 PM 50.0 °F 45.0 °F 83% 29.95 in 10.0 mi South 8.1 mph - 0.00 in   Overcast
9:34 PM 50.0 °F 44.6 °F 82% 29.94 in 10.0 mi South 10.4 mph 17.3 mph N/A   Scattered Clouds
9:53 PM 50.0 °F 46.0 °F 86% 29.95 in 10.0 mi South 8.1 mph - N/A   Mostly Cloudy
10:53 PM 50.0 °F 46.0 °F 86% 29.97 in 10.0 mi South 8.1 mph - N/A   Overcast
11:19 PM 50.0 °F 46.4 °F 87% 29.99 in 10.0 mi South 6.9 mph - N/A   Overcast
11:53 PM 48.9 °F 46.0 °F 90% 29.99 in 10.0 mi South 4.6 mph - N/A   Overcast